DECAYED

FENGYUN 1C DEB, 30261 (Decayed)

Orbit data source: Space-Track

FENGYUN 1C DEB, 30261 was space debris in LEO originally from a launch on Mon, 10 May 1999 UTC launched from the Taiyaun Space Center, China (TSC). Fengyun 1C debris stems from the Chinese weather satellite Fengyun-1C, which was intentionally destroyed by a Chinese anti-satellite missile in 2007. This event dramatically increased the amount of space debris, with thousands of trackable fragments posing hazards to satellites and human spaceflight. The Fengyun 1C debris cloud has become a focal point in discussions about space sustainability and the need for international regulations to prevent the creation of new debris.

Not visible in the next 10 days
Identifier
30261, 1999-025XW
Orbit
Decayed
Country
Flag of CNCN / PRC
Related business
Manufacturer
Unknown
Mission
Decayed spacecraft
Bus & Motor
Unknown
Mass
Unknown
Launch date (UTC)
1999-05-10 (27 years ago)
Launch vehicle
Unknown
Launch site
Taiyaun Space Center, China (TSC)
Object type
Payload
Rocket body
Debris
Shape & HBR
Unknown shape, 0.2 m
Radar Cross Section
Medium (>0.1 m² and <1 m²)

Expand to show TLE details & history
Last TLE update: 8 months ago

TLE from 8 months ago
0 FENGYUN 1C DEB
1 30261U 99025XW  25338.84468853  .12478399  33913-5  95893-3 0  9998
2 30261  98.7225  20.7356 0010771 276.0410  83.9657 16.40041585 22462
Epoch: 2025-12-04T20:16Z
TLE epoch observation values (Epoch: 2025-12-04T20:16:21.088Z)
Latitude
-0.00012°
Longitude
2.75246°
Altitude
168.166 km
Speed
7.806 km/s
True Right ascension
01h 22m 56s
True Declination
0° 00' 00"
Sunlit
Object was in full shadow at epoch
Visualization orbit readout
Latitude
Unknown
Longitude
Unknown
Altitude
Unknown
Speed
Unknown
Apparent Right ascension
Unknown
Apparent Declination
Unknown
Sunlit
N/A
Visualization observer readout
Local Sidereal Time
20:49:55
Azimuth
Unknown
Elevation
Unknown
Doppler factor
Unknown
Orbital elements
Apogee altitude
169.609 km
Perigee altitude
155.519 km
Semi-major axis
6,540.701 km
Eccentricity
0.00108
Inclination
98.7225°
RAAN
20.7356°
Arg. of periapsis
276.041°
True anomaly
84.08846°
Mean anomaly
83.9657°
Eccentric anomaly
84.02708°
Mean motion
4.10305 °/min
Orbital period
87.74 mins
BSTAR
0.00095893
Loading maneuver chart data...
Computing Atmospheric mass density...

Documentation

Showing up to 5 results
|